Location: Quedlinburg
(51.7921°N, 11.1414°E)
Time: 21:20:26
(UTC+02:00)

CUBESAT XI-V - Pass Details

Date: 16 March 2026
Orbit: 643 x 664 km, 98.3° (Epoch: 14 April)

Event Time Altitude Azimuth Distance (km) Brightness Sun altitude
Exits shadow 03:47:17 22° 325° (NW) 1,429 ? -24.5°
Drops below altitude 10° 03:49:00 10° 335° (NNW) 2,069 ? -24.3°
Sets 03:51:18 0° 341° (NNW) 2,982 ? -24.0°
